Location: Newark
(25.4800°N, 85.7200°E)
Time: 15:17:39
(UTC+00:00)

Vanguard 1 Rocket - Pass Details

Date: 28 August 2019
Orbit: 651 x 4225 km, 34.3° (Epoch: 20 September)

Event Time Altitude Azimuth Distance (km) Brightness Sun altitude
Rises 03:16:57 0° 268° (W) 4,536 10.5 44.3°
Reaches altitude 10° 03:20:34 10° 252° (WSW) 4,023 10.4 45.1°
Maximum altitude 03:28:16 21° 209° (SSW) 4,142 10.9 46.8°
Drops below altitude 10° 03:39:43 10° 168° (SSE) 6,167 12.0 49.3°
Sets 03:47:45 0° 155° (SSE) 7,812 12.5 51.0°
